Millville, NJ

5:07 AM EDT on August 25, 2016 (GMT -0400)
Millville Municipal

Weather History for KMIV - April, 2014

Change the Weather History Date:

Friday, April 11, 2014

  Actual Average Record
Temperature  
Mean Temperature 66 °F -  
Max Temperature 78 °F 60 °F 81 °F (2013)
Min Temperature 53 °F 36 °F 23 °F (2007)
Growing Degree Days 16 (Base 50)    
Moisture  
Dew Point 45 °F    
Average Humidity 53    
Maximum Humidity 86    
Minimum Humidity 29    
Precipitation  
Precipitation 0.00 in - - ()
Sea Level Pressure  
Sea Level Pressure 30.02 in    
Wind  
Wind Speed 6 mph (WSW)    
Max Wind Speed 13 mph    
Max Gust Speed -    
Visibility 10 miles    
Events      
Averages and records for this station are not official NWS values.
T = Trace of Precipitation, MM = Missing Value Source: NWS Daily Summary

Daily Weather History Graph

Daily Weather History Graph

Search for Another Location

Airport or City:

Trip Planner

Search our weather history database for the weather conditions in past years. The results will help you decide how hot, cold, wet, or windy it might be!

Date:

Astronomy

Apr. 11, 2014 Rise Set
Actual Time 6:29 AM EDT 7:34 PM EDT
Civil Twilight 6:01 AM EDT 8:01 PM EDT
Nautical Twilight 5:29 AM EDT 8:34 PM EDT
Astronomical Twilight 4:54 AM EDT 9:08 PM EDT
Moon 4:13 PM EDT (4/11) 4:21 AM EDT (4/11)
Length of Visible Light 13h 59m
Length of Day
13h 04m
Waxing Gibbous, 87% of the Moon is Illuminated
Apr 11
Waxing Gibbous
Apr 15
Full
Apr 22
Last Quarter
Apr 29
New
May 6
First Quarter

Hourly Weather History & Observations

Time (EDT) Temp. Dew Point Humidity Pressure Visibility Wind Dir Wind Speed Gust Speed Precip Events Conditions
12:54 AM 53.1 °F 41.0 °F 64% 30.06 in 10.0 mi Variable 5.8 mph - N/A   Clear
1:54 AM 55.0 °F 42.1 °F 62% 30.04 in 10.0 mi Variable 5.8 mph - N/A   Clear
2:54 AM 55.0 °F 42.1 °F 62% 30.02 in 10.0 mi Variable 5.8 mph - N/A   Clear
3:54 AM 55.9 °F 44.1 °F 64% 30.00 in 10.0 mi Variable 5.8 mph - N/A   Clear
4:54 AM 55.0 °F 44.1 °F 67% 30.01 in 10.0 mi Variable 4.6 mph - N/A   Clear
5:54 AM 55.0 °F 44.1 °F 67% 30.02 in 10.0 mi SSW 4.6 mph - N/A   Clear
6:54 AM 55.0 °F 44.1 °F 67% 30.05 in 10.0 mi SW 3.5 mph - N/A   Clear
7:54 AM 59.0 °F 44.1 °F 58% 30.06 in 10.0 mi SW 8.1 mph - N/A   Clear
8:54 AM 61.0 °F 44.1 °F 54% 30.06 in 10.0 mi SW 9.2 mph - N/A   Clear
9:54 AM 64.9 °F 44.1 °F 47% 30.07 in 10.0 mi West 12.7 mph - N/A   Clear
10:54 AM 69.1 °F 44.1 °F 40% 30.07 in 10.0 mi WSW 8.1 mph - N/A   Clear
11:54 AM 73.0 °F 44.1 °F 35% 30.04 in 10.0 mi West 8.1 mph - N/A   Clear
12:54 PM 73.9 °F 44.1 °F 34% 30.02 in 10.0 mi SW 8.1 mph - N/A   Clear
1:54 PM 75.0 °F 45.0 °F 34% 30.00 in 10.0 mi WSW 8.1 mph - N/A   Clear
2:54 PM 77.0 °F 44.1 °F 31% 29.97 in 10.0 mi Variable 6.9 mph - N/A   Clear
3:54 PM 78.1 °F 43.0 °F 29% 29.95 in 10.0 mi Variable 6.9 mph - N/A   Clear
4:54 PM 75.0 °F 46.0 °F 36% 29.95 in 10.0 mi SSE 8.1 mph - N/A   Clear
5:54 PM 73.0 °F 46.0 °F 38% 29.94 in 10.0 mi Variable 4.6 mph - N/A   Clear
6:54 PM 69.1 °F 46.9 °F 45% 29.95 in 10.0 mi South 3.5 mph - N/A   Clear
7:54 PM 63.0 °F 48.0 °F 58% 29.98 in 10.0 mi Calm Calm - N/A   Clear
8:54 PM 64.0 °F 48.9 °F 58% 30.02 in 10.0 mi North 5.8 mph - N/A   Clear
9:54 PM 62.1 °F 50.0 °F 65% 30.04 in 10.0 mi North 4.6 mph - N/A   Clear
10:54 PM 57.9 °F 48.9 °F 72% 30.03 in 10.0 mi Calm Calm - N/A   Mostly Cloudy
11:54 PM 53.1 °F 48.9 °F 86% 30.04 in 10.0 mi Calm Calm - N/A   Partly Cloudy